Regional Weather Roundup
Issued by NWS Albany, NY

Home | Current Version | Previous Version | Text Only | Print | Product List | Glossary On
Versions: 1 2 3 4 5 6 7 8 9 10 11 12 13 14 15 16 17 18 19 20 21 22 23 24 25 26 27 28 29 30 31 32 33 34 35 36 37 38 39 40 41 42 43 44 45 46 47 48 49 50
000
ASUS41 KALY 230910
RWRALY

NEW YORK STATE HOURLY WEATHER ROUNDUP
NATIONAL WEATHER SERVICE ALBANY NY
500 AM EDT SUN APR 23 2017

NOTE: "FAIR" INDICATES FEW OR NO CLOUDS BELOW 12,000 FEET WITH NO
SIGNIFICANT WEATHER AND/OR NO OBSTRUCTIONS TO VISIBILITY.

NYZ032-033-038>043-046>054-057>066-NYZ062>081-082-084-231000-
EAST


CITY           SKY/WX    TMP DP  RH WIND       PRES   REMARKS
ALBANY         PTCLDY    40  33  76 N3        30.06F
GLENS FALLS    CLEAR     32  30  92 NW3       30.05S
POUGHKEEPSIE   CLEAR     36  34  92 CALM      30.06R
NEWBURGH       CLEAR     37  36  93 CALM      30.06S
MONTGOMERY     CLEAR     35  34  96 CALM      30.06R
WHITE PLAINS   CLOUDY    45  34  65 N13       30.03R
ISLIP          PTCLDY    46  40  79 N7        30.02S
NEW YORK CITY  CLOUDY    49  35  58 N12       30.05R
CENTRAL PARK   CLOUDY    47  36  65 N8        30.08R
$$

NYZ005>009-017-018-044>046-055-056-231000-
CENTRAL


CITY           SKY/WX    TMP DP  RH WIND       PRES   REMARKS
FULTON         CLEAR     34  32  92 CALM      30.07S
SYRACUSE       PTCLDY    34  32  92 CALM      30.07S
ROME           CLEAR     30  29  96 CALM      30.09S
ELMIRA         CLEAR     29  27  92 W3        30.09S
BINGHAMTON     CLEAR     37  32  82 NW5       30.05S WCI  33
MONTICELLO     CLEAR     34  32  93 CALM      30.06R
$$

NYZ026>034-041>043-087-231000-
NORTH


CITY           SKY/WX    TMP DP  RH WIND       PRES   REMARKS
WATERTOWN      CLEAR     27  27 100 CALM      30.07R
FORT DRUM      NOT AVBL
OGDENSBURG     FAIR      34  34  99 CALM      30.06S
MASSENA        FOG       31  30  96 CALM      30.07S VSB 3/4
SARANAC LAKE   FOG       27  26  96 CALM      30.01S VSB 1/2
PLATTSBURGH    CLEAR     36  33  89 CALM      30.05R
$$

NYZ001>004-010>016-019>021-085-231000-
WEST


CITY           SKY/WX    TMP DP  RH WIND       PRES   REMARKS
NIAGARA FALLS  CLEAR     38  34  85 SW6       30.09S WCI  33
BUFFALO        CLEAR     36  32  85 S7        30.09S WCI  30
DUNKIRK        CLEAR     30  28  92 S6        30.11S WCI  24
JAMESTOWN      CLEAR     34  30  86 CALM      30.08S
WELLSVILLE     CLEAR     34  30  85 CALM      30.08S
ROCHESTER      PTCLDY    37  34  89 SW6       30.09S WCI  32
PENN YAN       CLEAR     35  31  85 CALM      30.08S
$$

             KEY
       WCI = WIND CHILL INDEX
       VSB = VISIBILITY
       HX  = HEAT INDEX
$$



USA.gov is the U.S. government's official web portal to all federal, state and local government web resources and services.